Location: Newark
(7.0858°N, 171.3717°E)
Time: 06:56:54
(UTC+00:00)

Courier 1B - Pass Details

Date: 28 November 2020
Orbit: 962 x 1209 km, 28.3° (Epoch: 20 January)

Event Time Altitude Azimuth Distance (km) Brightness Sun altitude
Rises 12:45:40 0° 310° (NW) 3,816 - -74.6°
Reaches altitude 10° 12:50:26 10° 338° (NNW) 2,925 - -74.2°
Maximum altitude 12:53:15 12° 2° (N) 2,781 - -73.9°
Drops below altitude 10° 12:56:08 10° 25° (NNE) 2,999 - -73.5°
Sets 13:01:10 0° 53° (NE) 4,018 - -72.9°
